When you browse on this site, cookies collect data to enhance your experience and personalize the content and advertising you see.
Visit our Privacy Policy to learn more. By continuing to use the site, you agree to this use of cookies and data.
  • In Slovakia
  • List of Countries
  • For 7 days
  • Water Temperature
  • Satellite Maps
  • Weather Map
  • Weather Widgets
  • user-avatar
    Login

    Hourly Weather Mamedkala

    Today, 25 June, Tuesday

    Time Temperature Precipitation Wind Pressure Humidity
    00:00 +28°C° 0.1 mm 1 mps 757 mmHg 61%
    01:00 +28°C° 0 mm 1 mps 757 mmHg 61%
    02:00 +27°C° 0 mm 2 mps 757 mmHg 60%
    03:00 +27°C° 0 mm 2 mps 756 mmHg 60%
    04:00 +28°C° 0 mm 2 mps 757 mmHg 58%
    05:00 +29°C° 0 mm 3 mps 757 mmHg 56%
    06:00 +30°C° 0 mm 3 mps 757 mmHg 54%
    07:00 +33°C° 0 mm 3 mps 757 mmHg 51%
    08:00 +34°C° 0 mm 3 mps 757 mmHg 49%
    09:00 +35°C° 0 mm 4 mps 757 mmHg 47%
    10:00 +35°C° 0.1 mm 4 mps 757 mmHg 48%
    11:00 +36°C° 0.1 mm 4 mps 757 mmHg 49%
    12:00 +36°C° 0.1 mm 4 mps 757 mmHg 50%
    13:00 +36°C° 0.1 mm 3 mps 757 mmHg 50%
    14:00 +36°C° 0.1 mm 3 mps 757 mmHg 49%
    15:00 +36°C° 0.1 mm 2 mps 757 mmHg 49%
    16:00 +35°C° 0.7 mm 2 mps 757 mmHg 53%
    17:00 +33°C° 0.7 mm 1 mps 757 mmHg 57%
    18:00 +32°C° 0.7 mm 1 mps 757 mmHg 62%
    19:00 +31°C° 0.4 mm 1 mps 757 mmHg 65%
    20:00 +30°C° 0.4 mm 2 mps 757 mmHg 69%
    21:00 +29°C° 0.4 mm 3 mps 757 mmHg 73%
    22:00 +29°C° 0 mm 3 mps 757 mmHg 70%
    23:00 +29°C° 0 mm 3 mps 757 mmHg 67%

    Tomorrow, 26 June, Wednesday

    Time Temperature Precipitation Wind Pressure Humidity
    00:00 +29°C° 0 mm 3 mps 757 mmHg 64%
    01:00 +28°C° 0 mm 3 mps 757 mmHg 63%
    02:00 +28°C° 0 mm 3 mps 757 mmHg 62%
    03:00 +28°C° 0 mm 2 mps 757 mmHg 60%
    04:00 +29°C° 0 mm 2 mps 757 mmHg 58%
    05:00 +30°C° 0 mm 2 mps 757 mmHg 56%
    06:00 +31°C° 0 mm 2 mps 758 mmHg 54%
    07:00 +33°C° 0 mm 3 mps 758 mmHg 52%
    08:00 +34°C° 0 mm 4 mps 758 mmHg 49%
    09:00 +35°C° 0 mm 5 mps 758 mmHg 47%
    10:00 +35°C° 0.4 mm 5 mps 758 mmHg 49%
    11:00 +35°C° 0.4 mm 6 mps 758 mmHg 50%
    12:00 +35°C° 0.4 mm 7 mps 758 mmHg 51%
    13:00 +34°C° 0.5 mm 6 mps 758 mmHg 55%
    14:00 +33°C° 0.5 mm 6 mps 758 mmHg 59%
    15:00 +32°C° 0.5 mm 5 mps 758 mmHg 63%
    16:00 +32°C° 0.2 mm 5 mps 758 mmHg 64%
    17:00 +30°C° 0.2 mm 4 mps 758 mmHg 65%
    18:00 +29°C° 0.2 mm 4 mps 758 mmHg 66%
    19:00 +28°C° 0.2 mm 3 mps 758 mmHg 70%
    20:00 +27°C° 0.2 mm 2 mps 758 mmHg 73%
    21:00 +27°C° 0.2 mm 2 mps 758 mmHg 77%
    22:00 +26°C° 0.1 mm 2 mps 758 mmHg 76%
    23:00 +26°C° 0.1 mm 2 mps 758 mmHg 75%

    Day after tomorrow, 27 June, Thursday

    Time Temperature Precipitation Wind Pressure Humidity
    00:00 +25°C° 0.1 mm 2 mps 758 mmHg 74%
    01:00 +25°C° 0.1 mm 2 mps 757 mmHg 74%
    02:00 +25°C° 0.1 mm 2 mps 757 mmHg 73%
    03:00 +25°C° 0.1 mm 1 mps 757 mmHg 73%
    04:00 +26°C° 0 mm 1 mps 757 mmHg 69%
    05:00 +26°C° 0 mm 1 mps 757 mmHg 66%
    06:00 +27°C° 0 mm 1 mps 757 mmHg 63%
    07:00 +29°C° 0 mm 1 mps 757 mmHg 57%
    08:00 +30°C° 0 mm 2 mps 757 mmHg 52%
    09:00 +31°C° 0 mm 3 mps 757 mmHg 46%
    10:00 +31°C° 0.1 mm 3 mps 756 mmHg 45%
    11:00 +33°C° 0.1 mm 4 mps 756 mmHg 43%
    12:00 +33°C° 0.1 mm 5 mps 756 mmHg 42%
    13:00 +33°C° 0.1 mm 4 mps 756 mmHg 43%
    14:00 +32°C° 0.1 mm 4 mps 755 mmHg 45%
    15:00 +32°C° 0.1 mm 4 mps 755 mmHg 46%
    16:00 +30°C° 0.2 mm 3 mps 755 mmHg 47%
    17:00 +30°C° 0.2 mm 3 mps 755 mmHg 48%
    18:00 +29°C° 0.2 mm 3 mps 754 mmHg 49%
    19:00 +27°C° 0 mm 3 mps 755 mmHg 52%
    20:00 +26°C° 0 mm 2 mps 755 mmHg 55%
    21:00 +25°C° 0 mm 2 mps 755 mmHg 59%
    22:00 +24°C° 0 mm 2 mps 754 mmHg 60%
    23:00 +24°C° 0 mm 1 mps 754 mmHg 61%

    28 June, Friday

    Time Temperature Precipitation Wind Pressure Humidity
    00:00 +24°C° 0 mm 1 mps 754 mmHg 63%
    01:00 +23°C° 0 mm 2 mps 754 mmHg 63%
    02:00 +23°C° 0 mm 2 mps 753 mmHg 63%
    03:00 +23°C° 0 mm 2 mps 753 mmHg 63%
    04:00 +24°C° 0 mm 2 mps 753 mmHg 60%
    05:00 +25°C° 0 mm 3 mps 753 mmHg 57%
    06:00 +26°C° 0 mm 3 mps 753 mmHg 54%
    07:00 +27°C° 0 mm 3 mps 752 mmHg 49%
    08:00 +29°C° 0 mm 4 mps 752 mmHg 44%
    09:00 +30°C° 0 mm 5 mps 752 mmHg 39%
    10:00 +32°C° 0 mm 5 mps 752 mmHg 40%
    11:00 +32°C° 0 mm 6 mps 751 mmHg 40%
    12:00 +33°C° 0 mm 7 mps 751 mmHg 41%
    13:00 +32°C° 0.1 mm 6 mps 751 mmHg 43%
    14:00 +32°C° 0.1 mm 6 mps 750 mmHg 45%
    15:00 +30°C° 0.1 mm 6 mps 750 mmHg 47%
    16:00 +30°C° 0 mm 5 mps 750 mmHg 50%
    17:00 +29°C° 0 mm 5 mps 749 mmHg 53%
    18:00 +28°C° 0 mm 4 mps 749 mmHg 56%
    19:00 +27°C° 0 mm 3 mps 749 mmHg 61%
    20:00 +26°C° 0 mm 3 mps 749 mmHg 66%
    21:00 +24°C° 0 mm 2 mps 750 mmHg 71%
    22:00 +24°C° 0 mm 2 mps 750 mmHg 69%
    23:00 +24°C° 0 mm 2 mps 750 mmHg 68%

    29 June, Saturday

    Time Temperature Precipitation Wind Pressure Humidity
    00:00 +24°C° 0 mm 1 mps 749 mmHg 66%
    01:00 +24°C° 0 mm 1 mps 749 mmHg 66%
    02:00 +24°C° 0 mm 1 mps 749 mmHg 66%
    03:00 +24°C° 0 mm 1 mps 749 mmHg 66%
    04:00 +25°C° 0 mm 1 mps 749 mmHg 64%
    05:00 +26°C° 0 mm 2 mps 749 mmHg 63%
    06:00 +26°C° 0 mm 3 mps 749 mmHg 61%
    07:00 +27°C° 0 mm 2 mps 749 mmHg 57%
    08:00 +29°C° 0 mm 2 mps 749 mmHg 53%
    09:00 +30°C° 0 mm 2 mps 749 mmHg 50%
    10:00 +30°C° 0 mm 3 mps 749 mmHg 52%
    11:00 +30°C° 0 mm 4 mps 749 mmHg 54%
    12:00 +30°C° 0 mm 5 mps 749 mmHg 56%
    13:00 +30°C° 0 mm 6 mps 749 mmHg 57%
    14:00 +30°C° 0 mm 6 mps 749 mmHg 58%
    15:00 +30°C° 0 mm 6 mps 748 mmHg 58%
    16:00 +29°C° 0.2 mm 6 mps 748 mmHg 61%
    17:00 +28°C° 0.2 mm 5 mps 748 mmHg 64%
    18:00 +28°C° 0.2 mm 4 mps 748 mmHg 67%
    19:00 +26°C° 0.2 mm 4 mps 749 mmHg 71%
    20:00 +25°C° 0.2 mm 3 mps 750 mmHg 75%
    21:00 +24°C° 0.2 mm 3 mps 750 mmHg 78%
    22:00 +23°C° 0.3 mm 5 mps 751 mmHg 80%
    23:00 +23°C° 0.3 mm 6 mps 751 mmHg 82%

    30 June, Sunday

    Time Temperature Precipitation Wind Pressure Humidity
    00:00 +23°C° 0.3 mm 8 mps 751 mmHg 83%
    01:00 +22°C° 0.4 mm 7 mps 751 mmHg 84%
    02:00 +21°C° 0.4 mm 6 mps 751 mmHg 85%
    03:00 +21°C° 0.4 mm 6 mps 751 mmHg 85%
    04:00 +21°C° 0.2 mm 5 mps 751 mmHg 84%
    05:00 +21°C° 0.2 mm 5 mps 752 mmHg 82%
    06:00 +21°C° 0.2 mm 4 mps 752 mmHg 81%
    07:00 +22°C° 0 mm 4 mps 752 mmHg 75%
    08:00 +23°C° 0 mm 5 mps 752 mmHg 69%
    09:00 +26°C° 0 mm 5 mps 752 mmHg 62%
    10:00 +26°C° 0 mm 5 mps 751 mmHg 63%
    11:00 +26°C° 0 mm 5 mps 751 mmHg 63%
    12:00 +26°C° 0 mm 5 mps 751 mmHg 63%
    13:00 +26°C° 0 mm 5 mps 751 mmHg 64%
    14:00 +26°C° 0 mm 4 mps 751 mmHg 65%
    15:00 +26°C° 0 mm 4 mps 751 mmHg 65%
    16:00 +26°C° 0 mm 4 mps 751 mmHg 68%
    17:00 +25°C° 0 mm 4 mps 751 mmHg 70%
    18:00 +25°C° 0 mm 3 mps 751 mmHg 72%
    19:00 +25°C° 0 mm 3 mps 752 mmHg 74%
    20:00 +24°C° 0 mm 3 mps 752 mmHg 76%
    21:00 +22°C° 0 mm 3 mps 753 mmHg 79%
    22:00 +23°C° 0 mm 4 mps 753 mmHg 75%
    23:00 +23°C° 0 mm 5 mps 753 mmHg 70%
    Show more